Regional Weather Roundup
Issued by NWS

Home | Current Version | Previous Version | Graphics & Text | Print | Product List | Glossary On
Versions: 1 2 3 4 5 6 7 8 9 10 11 12 13 14 15 16 17 18 19 20 21 22 23 24 25 26 27 28 29 30 31 32 33 34 35 36 37 38 39 40 41 42 43 44 45 46 47 48 49 50
000
ASUS43 KFSD 220810
RWRSD

WEATHER ROUNDUP FOR SOUTH DAKOTA
NATIONAL WEATHER SERVICE SIOUX FALLS SD
200 AM CST SUN JAN 22 2017

NOTE: "FAIR" INDICATES FEW OR NO CLOUDS BELOW 12,000 FEET WITH NO
SIGNIFICANT WEATHER AND/OR OBSTRUCTIONS TO VISIBILITY.


SDZ001>005-009-010-012>017-220900-
NORTHWEST AND NORTH CENTRAL SOUTH DAKOTA

CITY           SKY/WX    TMP DP  RH WIND       PRES   REMARKS
BUFFALO          N/A     20  17  88 W10       29.59R WCI   9
FAITH            N/A     21  19  92 W12       29.66R WCI   9
MOBRIDGE       CLOUDY    16  11  80 N7        29.62R WCI   6
$$

SDZ012>016-024>037-041>051-057-063-072>074-220900-
SOUTHWEST AND SOUTH CENTRAL SOUTH DAKOTA

CITY           SKY/WX    TMP DP  RH WIND       PRES   REMARKS
RAPID CTY ARPT CLOUDY    26  21  81 W3        29.68R
PIERRE         CLOUDY    20  17  88 W7        29.66R WCI  11
CUSTER         CLEAR     24  21  88 W5        29.65R WCI  18
ELLSWORTH AFB  CLEAR     24  20  86 NW3       29.67R
PHILIP         CLOUDY    24  21  88 W8        29.69R WCI  15
PINE RIDGE     CLEAR     15  14  95 CALM      29.70R
SPEARFISH      FAIR      28  19  69 W5        29.68R WCI  23
WINNER         FAIR      29  26  89 W9        29.67R WCI  20
$$

SDZ004>011-016>023-039-040-220900-
NORTHEAST SOUTH DAKOTA

CITY           SKY/WX    TMP DP  RH WIND       PRES   REMARKS
ABERDEEN       CLOUDY    31  27  85 W5        29.64R WCI  26
WATERTOWN      LGT SNOW  31  31 100 NW7       29.59R FOG     WCI  24
BROOKINGS      CLOUDY    31  30  96 NW8       29.59R WCI  23
SISSETON         N/A     34  34 100 CALM      29.60R
$$

SDZ017-020-022-023-036>040-048>070-220900-
SOUTHEAST SOUTH DAKOTA

CITY           SKY/WX    TMP DP  RH WIND       PRES   REMARKS
SIOUX FALLS    CLOUDY    32  30  92 NW9       29.61R WCI  24
HURON          CLOUDY    31  29  92 NW7       29.65R WCI  24
CHAMBERLAIN    FOG       23  23  99 CALM      29.67R VSB 1/2
MITCHELL       CLOUDY    32  29  88 NW8       29.66R WCI  25
YANKTON        CLOUDY    32  28  86 W9        29.64R WCI  24
$$

ABBREVIATIONS USED IN REMARKS
   TC - TEMPERATURE IN CELSIUS
  WCI - WIND CHILL INDEX
   HX - HEAT INDEX
  VSB - VISIBILITY




USA.gov is the U.S. government's official web portal to all federal, state and local government web resources and services.